Location: ???????
(55.4362°N, 38.1183°E)
Time: 01:20:40
(UTC+00:00)

METEOR M2 - Pass Details

Date: 04 December 2021
Orbit: 818 x 827 km, 98.4° (Epoch: 28 January)

Event Time Altitude Azimuth Distance (km) Brightness Sun altitude
Rises 15:59:19 0° 172° (S) 3,356 ? -24.0°
Reaches altitude 10° 16:01:41 10° 176° (S) 2,427 ? -24.4°
Maximum altitude 16:07:01 64° 257° (WSW) 915 ? -25.1°
Drops below altitude 10° 16:12:24 10° 340° (NNW) 2,439 ? -25.9°
Sets 16:14:48 0° 343° (NNW) 3,375 ? -26.2°
